Location: Unspecified
(35.7250°N, 0.0000°E)
Time: 18:39:54
(UTC+00:00)

Transit 4A - All Passes

Search period start: 25 June 2019 00:00
Search period end: 05 July 2019 00:00
Orbit: 862 x 983 km, 66.8° (Epoch: 24 June)

Date Brightness Start Highest point End Pass type
(mag) Time Alt. Az. Time Alt. Az. Time Alt. Az.
25 Jun - 05:56:13 10° SSE 06:01:02 24° ESE 06:05:55 10° NE daylight
25 Jun - 07:40:53 10° SW 07:46:58 52° WNW 07:53:13 10° NNE daylight
25 Jun - 15:01:48 10° N 15:06:02 18° NE 15:10:11 10° E daylight
25 Jun - 16:46:47 10° NNW 16:53:09 80° WSW 16:59:17 10° SSE daylight
26 Jun - 06:04:31 10° S 06:10:09 36° ESE 06:15:54 10° NE daylight
26 Jun - 07:50:46 10° WSW 07:56:28 35° NW 08:02:18 10° N daylight
26 Jun - 15:10:32 10° N 15:15:44 26° NE 15:20:48 10° ESE daylight
26 Jun - 16:56:18 10° NW 17:02:24 52° WSW 17:08:19 10° S daylight
27 Jun - 06:13:16 10° S 06:19:20 56° ESE 06:25:35 10° NE daylight
27 Jun - 08:01:00 10° WSW 08:06:05 25° NW 08:11:15 10° N daylight
27 Jun - 15:19:29 10° NNW 15:25:19 37° NE 15:30:59 10° ESE daylight
27 Jun - 17:06:01 10° NW 17:11:35 34° WSW 17:17:00 10° S daylight
28 Jun - 04:42:16 10° ESE 04:43:17 10° E 04:44:18 10° E daylight
28 Jun - 06:22:21 10° SSW 06:28:37 84° ESE 06:35:03 10° NNE daylight
28 Jun - 08:11:42 10° W 08:15:48 18° NW 08:19:57 10° N daylight
28 Jun - 15:28:36 10° NNW 15:34:49 54° ENE 15:40:50 10° SE daylight
28 Jun - 17:16:04 10° WNW 17:20:40 22° WSW 17:25:12 10° SSW daylight
29 Jun - 04:48:18 10° SE 04:52:17 18° ESE 04:56:19 10° ENE daylight
29 Jun - 06:31:45 10° SW 06:37:59 66° WNW 06:44:23 10° NNE daylight
29 Jun - 08:23:09 10° WNW 08:25:37 12° NW 08:28:06 10° NNW daylight
29 Jun - 13:53:29 10° NNE 13:56:49 14° NE 14:00:06 10° ENE daylight
29 Jun - 15:37:52 10° NNW 15:44:14 80° ENE 15:50:22 10° SSE daylight
29 Jun - 17:26:53 10° WNW 17:29:43 13° W 17:32:31 10° SW daylight
30 Jun - 04:56:11 10° SSE 05:01:21 28° ESE 05:06:38 10° NE daylight
30 Jun - 06:41:27 10° SW 06:47:26 45° WNW 06:53:34 10° NNE daylight
30 Jun - 14:01:58 10° N 14:06:36 21° NE 14:11:07 10° E daylight
30 Jun - 15:47:15 10° NNW 15:53:33 69° WSW 15:59:37 10° SSE daylight
01 Jul - 05:04:40 10° S 05:10:30 43° ESE 05:16:29 10° NE daylight
01 Jul - 06:51:28 10° WSW 06:56:59 31° NW 07:02:37 10° N daylight
01 Jul - 14:10:48 10° N 14:16:15 29° NE 14:21:33 10° ESE daylight
01 Jul - 15:56:50 10° NW 16:02:46 44° WSW 16:08:31 10° S daylight
02 Jul - 05:13:33 10° SSW 05:19:44 65° ESE 05:26:05 10° NNE daylight
02 Jul - 07:01:51 10° W 07:06:38 22° NW 07:11:29 10° N daylight
02 Jul - 14:19:49 10° NNW 14:25:48 42° ENE 14:31:37 10° SE daylight
02 Jul - 16:06:40 10° NW 16:11:55 29° WSW 16:17:03 10° SSW daylight
03 Jul - 03:40:55 10° SE 03:43:34 13° E 03:46:15 10° ENE visible
03 Jul - 05:22:45 10° SSW 05:29:02 85° WNW 05:35:30 10° NNE daylight
03 Jul - 07:12:45 10° W 07:16:23 15° NW 07:20:03 10° N daylight
03 Jul - 12:45:38 10° NNE 12:47:34 11° NE 12:49:29 10° ENE daylight
03 Jul - 14:29:00 10° NNW 14:35:17 63° ENE 14:41:21 10° SE daylight
03 Jul - 16:16:55 10° WNW 16:21:00 18° WSW 16:25:00 10° SW daylight
04 Jul - 03:48:05 10° SSE 03:52:36 21° ESE 03:57:11 10° ENE visible
04 Jul - 05:32:15 10° SW 05:38:27 57° WNW 05:44:46 10° NNE daylight
04 Jul - 07:24:51 10° NW 07:26:15 11° NW 07:27:38 10° NNW daylight
04 Jul - 12:53:33 10° N 12:57:25 16° NE 13:01:12 10° E daylight
04 Jul - 14:38:18 10° NNW 14:44:39 88° WSW 14:50:46 10° SSE daylight
04 Jul - 16:28:35 10° W 16:30:00 11° W 16:31:25 10° WSW daylight
